Regional Weather Roundup
Issued by NWS

Home | Current Version | Previous Version | Text Only | Print | Product List | Glossary On
Versions: 1 2 3 4 5 6 7 8 9 10 11 12 13 14 15 16 17 18 19 20 21 22 23 24 25 26 27 28 29 30 31 32 33 34 35 36 37 38 39 40 41 42 43 44 45 46 47 48 49 50
000
ASUS46 KSEW 012110
RWRWA

WASHINGTON REGIONAL WEATHER ROUNDUP
NATIONAL WEATHER SERVICE SEATTLE WA
200 PM PDT SUN MAY 01 2016

NOTE:"FAIR" INDICATES FEW OR NO CLOUDS BELOW 12,000 FEET WITH NO
SIGNIFICANT WEATHER AND/OR OBSTRUCTIONS TO VISIBILITY.

WAZ505-507>509-012200-
SEATTLE, TACOMA, EVERETT, AND VICINITY

CITY           SKY/WX    TMP DP  RH WIND       PRES   REMARKS
EVERETT        SUNNY     68  47  46 VRB5      30.09F
BOEING FIELD   SUNNY     71  47  42 NW12G18   30.05F
RENTON         SUNNY     73  50  44 NW14      30.03F
SEATAC AIRPORT SUNNY     75  46  35 N14       30.06F
JBLM-MCCHORD   SUNNY     73  47  40 N12       30.04F
PUYALLUP       FAIR      72  52  49 VRB6G12   30.05F
BREMERTON      SUNNY     73  45  35 N9        30.08F
JBLM-FT LEWIS  SUNNY     74  50  42 NW12      30.03F
TACOMA NARROWS SUNNY     72  46  39 N7        30.05F
$$

WAZ001-503-506-510-514-515-012200-
NORTH INTERIOR

CITY           SKY/WX    TMP DP  RH WIND       PRES   REMARKS
BELLINGHAM     SUNNY     68  52  56 VRB7      30.08F
FRIDAY HARBOR  SUNNY     67  47  48 N7        30.10F
EASTSOUND      SUNNY     59  46  63 NW6       30.09F
PORT ANGELES   SUNNY     64  44  48 E12       30.10F
EDIZ HOOK      FAIR      61  47  60 E6        30.10F
PORT TOWNSEND  FAIR      68  48  49 SW7       30.09F
NAS WHIDBEY    SUNNY     61  49  64 W7        30.13F
ARLINGTON      SUNNY     72  52  49 NW9       30.08F
BURLINGTON     SUNNY     66  50  55 NW9       30.09F
$$

WAZ020-022-039-040-504-511-512-012200-
SOUTHWEST INTERIOR

CITY           SKY/WX    TMP DP  RH WIND       PRES   REMARKS
SHELTON        SUNNY     77  39  25 MISG      30.02F
OLYMPIA        SUNNY     74  47  38 N9        30.04F
CHEHALIS       FAIR      77  52  41 N8G14     30.02F
KELSO          SUNNY     77  52  41 W9        30.02F
VANCOUVER      SUNNY     79  38  22 E16G29    29.96F
SCAPPOOSE, OR  SUNNY     78  49  35 NE5       29.97F
PORTLAND, OR   MOSUNNY   80  39  23 E24G30    29.96F
$$

WAZ021-516-517-012200-
WASHINGTON COAST

CITY           SKY/WX    TMP DP  RH WIND       PRES   REMARKS
FORKS          SUNNY     69  46  43 SW10      30.04F
HOQUIAM        SUNNY     74  50  42 E13       30.01F HAZE
ASTORIA, OR    SUNNY     76  51  41 NE14G21   29.97F
$$

WAZ019-023-024-040-518-519-012200-
CASCADE MOUNTAINS AND COLUMBIA GORGE

CITY           SKY/WX    TMP DP  RH WIND       PRES   REMARKS
STAMPEDE PASS  SUNNY     59  33  37 MISG      30.15F
TROUTDALE, OR  SUNNY     79  42  26 NE14G24   29.96F
THE DALLES, OR SUNNY     80  37  21 E18       30.04F
$$

WAZ026-027-041>044-520-521-012200-
EAST SLOPES

CITY           SKY/WX    TMP DP  RH WIND       PRES   REMARKS
OMAK           SUNNY     74  36  25 N8        30.12F
WENATCHEE      SUNNY     73  35  25 SW7       30.11F
ELLENSBURG     SUNNY     75  35  23 E16G24    30.11F
YAKIMA         SUNNY     78  33  19 E8G22     30.09F
$$

WAZ028-034-035-012200-
COLUMBIA BASIN

CITY           SKY/WX    TMP DP  RH WIND       PRES   REMARKS
EPHRATA        SUNNY     75  33  21 N12G22    30.09F
MOSES LAKE     SUNNY     77  34  21 NE13G22   30.10F
PASCO          SUNNY     79  36  21 NE16G22   30.06F
HERMISTON, OR  SUNNY     77  43  29 NE13      30.05F
$$

WAZ036>038-012200-
NORTHEAST WASHINGTON

CITY           SKY/WX    TMP DP  RH WIND       PRES   REMARKS
SPOKANE GEIGER MOSUNNY   69  35  28 E14G20    30.13F
SPOKANE FELTS  SUNNY     72  39  30 MISG      30.12F
FAIRCHILD AFB  SUNNY     67  37  32 E10G18    30.12F
COEURDALENE,ID SUNNY     70  41  35 NE14      30.10F
DEER PARK      SUNNY     71  35  26 N15G21    30.14F
$$

WAZ029>033-012200-
SOUTHEAST WASHINGTON

CITY           SKY/WX    TMP DP  RH WIND       PRES   REMARKS
PULLMAN        SUNNY     66  43  43 SE10      30.12F
LEWISTON, ID   SUNNY     68  45  43 VRB3      30.09F
WALLA WALLA    SUNNY     70  49  47 VRB6      30.07F
PENDLETON, OR  SUNNY     71  40  32 N9G17     30.06F
$$



USA.gov is the U.S. government's official web portal to all federal, state and local government web resources and services.